| time (UTC) | temp C | wind direction | speed KPH | gust KPH | rain 1hr cm | rain 24hr cm | rain mn cm | humidity % | barometer mb |
| 20260504002459 | 15 | 256 | 0.0 | 0.0 | 0.00 | 0.00 | 0.00 | 76 | 1019.8 |
| 20260504001928 | 15 | 256 | 0.0 | 0.0 | 0.00 | 0.00 | 0.00 | 77 | 1019.8 |
| 20260504001454 | 15 | 256 | 0.0 | 0.0 | 0.00 | 0.00 | 0.00 | 76 | 1019.8 |
| 20260504000944 | 15 | 256 | 0.0 | 0.0 | 0.00 | 0.00 | 0.00 | 76 | 1019.8 |
| 20260504000441 | 15 | 256 | 0.0 | 0.0 | 0.00 | 0.00 | 0.00 | 76 | 1019.9 |
| 20260503235959 | 15 | 256 | 0.0 | 0.0 | 0.00 | 0.00 | 0.00 | 76 | 1020.0 |
| 20260503235436 | 16 | 256 | 0.0 | 0.0 | 0.00 | 0.00 | 0.00 | 76 | 1020.1 |
| 20260503234934 | 16 | 256 | 0.0 | 0.0 | 0.00 | 0.00 | 0.00 | 76 | 1020.1 |
| 20260503234428 | 16 | 256 | 0.0 | 0.0 | 0.00 | 0.00 | 0.00 | 76 | 1020.2 |
| 20260503234000 | 16 | 256 | 0.0 | 0.0 | 0.00 | 0.00 | 0.00 | 76 | 1020.2 |
| 20260503233506 | 16 | 256 | 0.0 | 0.0 | 0.00 | 0.00 | 0.00 | 76 | 1020.3 |
| 20260503232953 | 16 | 256 | 0.0 | 0.0 | 0.00 | 0.00 | 0.00 | 75 | 1020.3 |
| 20260503232430 | 16 | 256 | 0.0 | 0.0 | 0.00 | 0.00 | 0.00 | 75 | 1020.4 |
| 20260503231941 | 16 | 256 | 0.0 | 0.0 | 0.00 | 0.00 | 0.00 | 75 | 1020.5 |
| 20260503231439 | 16 | 256 | 0.0 | 0.0 | 0.00 | 0.00 | 0.00 | 76 | 1020.5 |
| 20260503230947 | 16 | 256 | 0.0 | 0.0 | 0.00 | 0.00 | 0.00 | 75 | 1020.6 |
| 20260503230445 | 16 | 256 | 0.0 | 0.0 | 0.00 | 0.00 | 0.00 | 75 | 1020.6 |
| 20260503225929 | 16 | 256 | 0.0 | 0.0 | 0.00 | 0.00 | 0.00 | 75 | 1020.5 |
| 20260503225454 | 16 | 256 | 0.0 | 0.0 | 0.00 | 0.00 | 0.00 | 75 | 1020.6 |
| 20260503225008 | 16 | 256 | 0.0 | 0.0 | 0.00 | 0.00 | 0.00 | 74 | 1020.6 |
| 20260503224444 | 16 | 256 | 0.0 | 0.0 | 0.00 | 0.00 | 0.00 | 74 | 1020.6 |
| 20260503223935 | 16 | 256 | 0.0 | 0.0 | 0.00 | 0.00 | 0.00 | 74 | 1020.7 |
| 20260503223440 | 16 | 256 | 0.0 | 0.0 | 0.00 | 0.00 | 0.00 | 74 | 1020.7 |
| 20260503223002 | 16 | 256 | 0.0 | 0.0 | 0.00 | 0.00 | 0.00 | 75 | 1020.7 |
| 20260503222448 | 16 | 256 | 0.0 | 0.0 | 0.00 | 0.00 | 0.00 | 75 | 1020.8 |
| 20260503221941 | 16 | 256 | 0.0 | 0.0 | 0.00 | 0.00 | 0.00 | 75 | 1020.8 |
| 20260503221439 | 16 | 256 | 0.0 | 0.0 | 0.00 | 0.00 | 0.00 | 75 | 1020.8 |
| 20260503220953 | 16 | 256 | 0.0 | 0.0 | 0.00 | 0.00 | 0.00 | 74 | 1020.8 |
| 20260503220446 | 16 | 256 | 0.0 | 0.0 | 0.00 | 0.00 | 0.00 | 74 | 1020.7 |
| 20260503215937 | 16 | 256 | 0.0 | 0.0 | 0.00 | 0.00 | 0.00 | 74 | 1020.7 |
| 20260503215435 | 16 | 256 | 0.0 | 0.0 | 0.00 | 0.00 | 0.00 | 74 | 1020.7 |
| 20260503215003 | 16 | 256 | 0.0 | 0.0 | 0.00 | 0.00 | 0.00 | 74 | 1020.7 |
| 20260503214440 | 16 | 256 | 0.0 | 0.0 | 0.00 | 0.00 | 0.00 | 74 | 1020.7 |
| 20260503213932 | 17 | 256 | 0.0 | 0.0 | 0.00 | 0.00 | 0.00 | 73 | 1020.6 |
| 20260503213459 | 17 | 256 | 0.0 | 0.0 | 0.00 | 0.00 | 0.00 | 72 | 1020.6 |
| 20260503212930 | 17 | 256 | 0.0 | 0.0 | 0.00 | 0.00 | 0.00 | 72 | 1020.6 |
| 20260503212428 | 17 | 256 | 0.0 | 0.0 | 0.00 | 0.00 | 0.00 | 72 | 1020.5 |
| 20260503211943 | 17 | 256 | 0.0 | 0.0 | 0.00 | 0.00 | 0.00 | 73 | 1020.5 |
| 20260503211440 | 17 | 256 | 0.0 | 0.0 | 0.00 | 0.00 | 0.00 | 72 | 1020.5 |
| 20260503210934 | 17 | 256 | 0.0 | 0.0 | 0.00 | 0.00 | 0.00 | 72 | 1020.5 |
| 20260503210428 | 17 | 256 | 0.0 | 0.0 | 0.00 | 0.00 | 0.00 | 72 | 1020.5 |
| 20260503205958 | 17 | 256 | 0.0 | 0.0 | 0.00 | 0.00 | 0.00 | 72 | 1020.4 |
| 20260503205504 | 17 | 256 | 0.0 | 0.0 | 0.00 | 0.00 | 0.00 | 72 | 1020.4 |
| 20260503204935 | 17 | 256 | 0.0 | 0.0 | 0.00 | 0.00 | 0.00 | 72 | 1020.4 |
| 20260503204501 | 17 | 256 | 0.0 | 0.0 | 0.00 | 0.00 | 0.00 | 71 | 1020.4 |
| 20260503203932 | 17 | 256 | 0.0 | 0.0 | 0.00 | 0.00 | 0.00 | 72 | 1020.5 |
| 20260503203436 | 17 | 256 | 0.0 | 0.0 | 0.00 | 0.00 | 0.00 | 71 | 1020.5 |
| 20260503202946 | 17 | 256 | 0.0 | 0.0 | 0.00 | 0.00 | 0.00 | 71 | 1020.5 |
| 20260503202444 | 17 | 256 | 0.0 | 0.0 | 0.00 | 0.00 | 0.00 | 71 | 1020.5 |
| 20260503202021 | 18 | 256 | 0.0 | 0.0 | 0.00 | 0.00 | 0.00 | 71 | 1020.5 |
| 20260503201504 | 18 | 256 | 0.0 | 0.0 | 0.00 | 0.00 | 0.00 | 71 | 1020.5 |
| 20260503200951 | 18 | 256 | 0.0 | 0.0 | 0.00 | 0.00 | 0.00 | 71 | 1020.4 |
| 20260503200444 | 18 | 256 | 0.0 | 0.0 | 0.00 | 0.00 | 0.00 | 71 | 1020.4 |
| 20260503195936 | 18 | 256 | 0.0 | 0.0 | 0.00 | 0.00 | 0.00 | 71 | 1020.4 |
| 20260503195433 | 18 | 256 | 0.0 | 0.0 | 0.00 | 0.00 | 0.00 | 71 | 1020.3 |
| 20260503194947 | 18 | 256 | 0.0 | 0.0 | 0.00 | 0.00 | 0.00 | 71 | 1020.3 |
| 20260503194445 | 18 | 256 | 0.0 | 0.0 | 0.00 | 0.00 | 0.00 | 71 | 1020.2 |
| 20260503193954 | 18 | 256 | 0.0 | 0.0 | 0.00 | 0.00 | 0.00 | 71 | 1020.3 |
| 20260503193440 | 18 | 256 | 0.0 | 0.0 | 0.00 | 0.00 | 0.00 | 71 | 1020.2 |
| 20260503192941 | 18 | 256 | 0.0 | 1.6 | 0.00 | 0.00 | 0.00 | 71 | 1020.1 |
| 20260503192430 | 18 | 256 | 0.0 | 3.2 | 0.00 | 0.00 | 0.00 | 71 | 1020.1 |
| 20260503191943 | 18 | 256 | 0.0 | 6.4 | 0.00 | 0.00 | 0.00 | 71 | 1020.1 |
| 20260503191447 | 18 | 256 | 1.6 | 6.4 | 0.00 | 0.00 | 0.00 | 71 | 1020.0 |
| 20260503190939 | 18 | 256 | 0.0 | 4.8 | 0.00 | 0.00 | 0.00 | 71 | 1019.9 |
| 20260503190436 | 18 | 256 | 1.6 | 4.8 | 0.00 | 0.00 | 0.00 | 71 | 1019.8 |
| 20260503185928 | 18 | 256 | 1.6 | 6.4 | 0.00 | 0.00 | 0.00 | 71 | 1019.8 |
| 20260503185451 | 18 | 256 | 3.2 | 6.4 | 0.00 | 0.00 | 0.00 | 71 | 1019.6 |
| 20260503184942 | 18 | 256 | 0.0 | 11.3 | 0.00 | 0.00 | 0.00 | 71 | 1019.6 |
| 20260503184440 | 18 | 256 | 3.2 | 11.3 | 0.00 | 0.00 | 0.00 | 71 | 1019.6 |
| 20260503183936 | 18 | 258 | 1.6 | 12.9 | 0.00 | 0.00 | 0.00 | 71 | 1019.6 |
| 20260503183504 | 18 | 260 | 4.8 | 11.3 | 0.00 | 0.00 | 0.00 | 70 | 1019.5 |
| 20260503182929 | 18 | 254 | 1.6 | 14.5 | 0.00 | 0.00 | 0.00 | 70 | 1019.5 |
| 20260503182453 | 18 | 254 | 8.0 | 14.5 | 0.00 | 0.00 | 0.00 | 69 | 1019.5 |
| 20260503181940 | 18 | 254 | 6.4 | 19.3 | 0.00 | 0.00 | 0.00 | 69 | 1019.5 |
| 20260503181432 | 18 | 281 | 11.3 | 19.3 | 0.00 | 0.00 | 0.00 | 69 | 1019.5 |
| 20260503180945 | 18 | 262 | 8.0 | 19.3 | 0.00 | 0.00 | 0.00 | 68 | 1019.5 |
| 20260503180442 | 18 | 263 | 9.7 | 24.1 | 0.00 | 0.00 | 0.00 | 67 | 1019.5 |
| 20260503175955 | 18 | 240 | 9.7 | 19.3 | 0.00 | 0.00 | 0.00 | 66 | 1019.4 |
| 20260503175452 | 18 | 281 | 11.3 | 20.9 | 0.00 | 0.00 | 0.00 | 65 | 1019.3 |
| 20260503175015 | 19 | 284 | 6.4 | 22.5 | 0.00 | 0.00 | 0.00 | 64 | 1019.3 |
| 20260503174451 | 19 | 258 | 11.3 | 24.1 | 0.00 | 0.00 | 0.00 | 63 | 1019.3 |
| 20260503173938 | 19 | 242 | 12.9 | 24.1 | 0.00 | 0.00 | 0.00 | 63 | 1019.3 |
| 20260503173436 | 20 | 304 | 8.0 | 20.9 | 0.00 | 0.00 | 0.00 | 61 | 1019.2 |
| 20260503172929 | 20 | 245 | 8.0 | 22.5 | 0.00 | 0.00 | 0.00 | 59 | 1019.1 |
| 20260503172427 | 20 | 294 | 11.3 | 22.5 | 0.00 | 0.00 | 0.00 | 58 | 1019.2 |
| 20260503171941 | 21 | 238 | 4.8 | 25.7 | 0.00 | 0.00 | 0.00 | 56 | 1019.1 |
| 20260503171439 | 21 | 238 | 16.1 | 25.7 | 0.00 | 0.00 | 0.00 | 56 | 1019.0 |
| 20260503170930 | 22 | 244 | 12.9 | 22.5 | 0.00 | 0.00 | 0.00 | 54 | 1018.9 |
| 20260503170427 | 22 | 254 | 11.3 | 22.5 | 0.00 | 0.00 | 0.00 | 53 | 1018.9 |
| 20260503151009 | 21 | 265 | 4.8 | 16.1 | 0.00 | 0.00 | 0.00 | 54 | 1019.4 |
| 20260503150443 | 21 | 308 | 8.0 | 22.5 | 0.00 | 0.00 | 0.00 | 53 | 1019.5 |
| 20260503130940 | 22 | 283 | 8.0 | 27.4 | 0.00 | 0.00 | 0.00 | 48 | 1020.6 |
| 20260503130438 | 22 | 253 | 12.9 | 30.6 | 0.00 | 0.00 | 0.00 | 48 | 1020.7 |
| 20260503110435 | 23 | 219 | 14.5 | 29.0 | 0.00 | 0.00 | 0.00 | 37 | 1020.7 |
| 20260503090434 | 21 | 284 | 4.8 | 12.9 | 0.00 | 0.00 | 0.00 | 49 | 1021.6 |
| 20260503081434 | 19 | 300 | 0.0 | 11.3 | 0.00 | 0.00 | 0.00 | 57 | 1021.8 |
| 20260503080942 | 18 | 299 | 6.4 | 11.3 | 0.00 | 0.00 | 0.00 | 58 | 1021.8 |
| 20260503080429 | 18 | 294 | 1.6 | 11.3 | 0.00 | 0.00 | 0.00 | 60 | 1021.8 |
| 20260503072931 | 17 | 28 | 0.0 | 3.2 | 0.00 | 0.00 | 0.00 | 65 | 1022.1 |
| 20260503072427 | 16 | 28 | 0.0 | 4.8 | 0.00 | 0.00 | 0.00 | 66 | 1022.2 |
| 20260503071941 | 16 | 28 | 0.0 | 4.8 | 0.00 | 0.00 | 0.00 | 66 | 1022.2 |
| 20260503071440 | 16 | 28 | 1.6 | 4.8 | 0.00 | 0.00 | 0.00 | 67 | 1022.1 |
| 20260503070934 | 16 | 28 | 1.6 | 6.4 | 0.00 | 0.00 | 0.00 | 68 | 1022.1 |
| 20260503070432 | 16 | 27 | 1.6 | 6.4 | 0.00 | 0.00 | 0.00 | 68 | 1022.1 |
| 20260503055007 | 13 | 28 | 1.6 | 6.4 | 0.00 | 0.00 | 0.00 | 71 | 1022.1 |
| 20260503054504 | 13 | 28 | 0.0 | 4.8 | 0.00 | 0.00 | 0.00 | 71 | 1022.0 |
| 20260503053934 | 13 | 28 | 1.6 | 4.8 | 0.00 | 0.00 | 0.00 | 71 | 1022.0 |
| 20260503053434 | 13 | 28 | 0.0 | 6.4 | 0.00 | 0.00 | 0.00 | 72 | 1022.0 |
| 20260503052928 | 12 | 28 | 1.6 | 6.4 | 0.00 | 0.00 | 0.00 | 71 | 1022.0 |
| 20260503052427 | 12 | 28 | 3.2 | 8.0 | 0.00 | 0.00 | 0.00 | 71 | 1022.0 |
| 20260503051941 | 12 | 28 | 1.6 | 8.0 | 0.00 | 0.00 | 0.00 | 71 | 1021.9 |
| 20260503051434 | 12 | 28 | 3.2 | 8.0 | 0.00 | 0.00 | 0.00 | 70 | 1021.9 |
| 20260503050946 | 12 | 27 | 1.6 | 8.0 | 0.00 | 0.00 | 0.00 | 71 | 1021.9 |
| 20260503050441 | 12 | 28 | 3.2 | 8.0 | 0.00 | 0.00 | 0.00 | 70 | 1021.8 |
| 20260503045933 | 12 | 34 | 1.6 | 6.4 | 0.00 | 0.00 | 0.00 | 71 | 1021.9 |
| 20260503045501 | 12 | 38 | 1.6 | 4.8 | 0.00 | 0.00 | 0.00 | 71 | 1021.8 |
| 20260503044932 | 12 | 44 | 0.0 | 6.4 | 0.00 | 0.00 | 0.00 | 73 | 1021.8 |
| 20260503044457 | 12 | 44 | 1.6 | 6.4 | 0.00 | 0.00 | 0.00 | 72 | 1021.7 |
| 20260503043954 | 12 | 326 | 3.2 | 6.4 | 0.00 | 0.00 | 0.00 | 72 | 1021.7 |
| 20260503043429 | 12 | 229 | 1.6 | 6.4 | 0.00 | 0.00 | 0.00 | 73 | 1021.7 |
| 20260503042933 | 13 | 229 | 3.2 | 6.4 | 0.00 | 0.00 | 0.00 | 74 | 1021.7 |
| 20260503042429 | 13 | 236 | 0.0 | 1.6 | 0.00 | 0.00 | 0.00 | 74 | 1021.7 |
| 20260503041943 | 13 | 236 | 0.0 | 0.0 | 0.00 | 0.00 | 0.00 | 73 | 1021.7 |
| 20260503041509 | 13 | 235 | 0.0 | 0.0 | 0.00 | 0.00 | 0.00 | 74 | 1021.7 |
| 20260503040937 | 13 | 235 | 0.0 | 0.0 | 0.00 | 0.00 | 0.00 | 74 | 1021.6 |
| 20260503040505 | 13 | 235 | 0.0 | 0.0 | 0.00 | 0.00 | 0.00 | 74 | 1021.6 |
| 20260503035937 | 13 | 235 | 0.0 | 0.0 | 0.00 | 0.00 | 0.00 | 74 | 1021.7 |
| 20260503035444 | 13 | 235 | 0.0 | 0.0 | 0.00 | 0.00 | 0.00 | 75 | 1021.6 |
| 20260503034949 | 13 | 235 | 0.0 | 0.0 | 0.00 | 0.00 | 0.00 | 75 | 1021.7 |
| 20260503034447 | 13 | 235 | 0.0 | 0.0 | 0.00 | 0.00 | 0.00 | 75 | 1021.6 |
| 20260503033940 | 13 | 235 | 0.0 | 0.0 | 0.00 | 0.00 | 0.00 | 74 | 1021.5 |
| 20260503033503 | 13 | 235 | 0.0 | 0.0 | 0.00 | 0.00 | 0.00 | 74 | 1021.5 |
| 20260503032935 | 13 | 235 | 0.0 | 0.0 | 0.00 | 0.00 | 0.00 | 74 | 1021.5 |
| 20260503032433 | 13 | 235 | 0.0 | 0.0 | 0.00 | 0.00 | 0.00 | 74 | 1021.5 |
| 20260503031946 | 13 | 235 | 0.0 | 0.0 | 0.00 | 0.00 | 0.00 | 75 | 1021.6 |
| 20260503031443 | 13 | 235 | 0.0 | 0.0 | 0.00 | 0.00 | 0.00 | 76 | 1021.7 |
| 20260503030955 | 13 | 235 | 0.0 | 0.0 | 0.00 | 0.00 | 0.00 | 75 | 1021.6 |
| 20260503030427 | 13 | 235 | 0.0 | 0.0 | 0.00 | 0.00 | 0.00 | 76 | 1021.6 |
| 20260503025941 | 13 | 235 | 0.0 | 0.0 | 0.00 | 0.00 | 0.00 | 76 | 1021.6 |
| 20260503025439 | 13 | 235 | 0.0 | 0.0 | 0.00 | 0.00 | 0.00 | 76 | 1021.6 |
| 20260503024932 | 13 | 235 | 0.0 | 0.0 | 0.00 | 0.00 | 0.00 | 75 | 1021.7 |
| 20260503024458 | 13 | 235 | 0.0 | 0.0 | 0.00 | 0.00 | 0.00 | 75 | 1021.6 |
| 20260503023947 | 13 | 235 | 0.0 | 0.0 | 0.00 | 0.00 | 0.00 | 75 | 1021.5 |
| 20260503023445 | 13 | 235 | 0.0 | 0.0 | 0.00 | 0.00 | 0.00 | 75 | 1021.6 |
| 20260503022935 | 13 | 235 | 0.0 | 0.0 | 0.00 | 0.00 | 0.00 | 75 | 1021.7 |
| 20260503022438 | 13 | 235 | 0.0 | 0.0 | 0.00 | 0.00 | 0.00 | 74 | 1021.7 |
| 20260503022011 | 14 | 235 | 0.0 | 0.0 | 0.00 | 0.00 | 0.00 | 75 | 1021.8 |
| 20260503021445 | 14 | 235 | 0.0 | 0.0 | 0.00 | 0.00 | 0.00 | 75 | 1021.7 |
| 20260503020957 | 14 | 235 | 0.0 | 0.0 | 0.00 | 0.00 | 0.00 | 74 | 1021.7 |
| 20260503020502 | 14 | 235 | 0.0 | 0.0 | 0.00 | 0.00 | 0.00 | 74 | 1021.6 |
| 20260503015933 | 14 | 235 | 0.0 | 0.0 | 0.00 | 0.00 | 0.00 | 74 | 1021.6 |
| 20260503015427 | 14 | 235 | 0.0 | 0.0 | 0.00 | 0.00 | 0.00 | 74 | 1021.7 |
| 20260503014941 | 14 | 235 | 0.0 | 0.0 | 0.00 | 0.00 | 0.00 | 74 | 1021.6 |
| 20260503014438 | 14 | 235 | 0.0 | 0.0 | 0.00 | 0.00 | 0.00 | 74 | 1021.7 |
| 20260503013930 | 15 | 235 | 0.0 | 0.0 | 0.00 | 0.00 | 0.00 | 74 | 1021.7 |
| 20260503013517 | 15 | 235 | 0.0 | 0.0 | 0.00 | 0.00 | 0.00 | 73 | 1021.7 |
| 20260503012953 | 15 | 235 | 0.0 | 0.0 | 0.00 | 0.00 | 0.00 | 73 | 1021.8 |
| 20260503012430 | 15 | 235 | 0.0 | 0.0 | 0.00 | 0.00 | 0.00 | 73 | 1021.8 |
| 20260503011943 | 15 | 235 | 0.0 | 0.0 | 0.00 | 0.00 | 0.00 | 73 | 1021.8 |
| 20260503011434 | 15 | 235 | 0.0 | 0.0 | 0.00 | 0.00 | 0.00 | 72 | 1021.8 |
| 20260503011005 | 15 | 235 | 0.0 | 0.0 | 0.00 | 0.00 | 0.00 | 72 | 1021.9 |
| 20260503010443 | 15 | 235 | 0.0 | 0.0 | 0.00 | 0.00 | 0.00 | 73 | 1021.9 |
| 20260503005936 | 15 | 235 | 0.0 | 0.0 | 0.00 | 0.00 | 0.00 | 72 | 1021.8 |
| 20260503005434 | 15 | 235 | 0.0 | 0.0 | 0.00 | 0.00 | 0.00 | 73 | 1021.9 |
| 20260503004946 | 15 | 235 | 0.0 | 0.0 | 0.00 | 0.00 | 0.00 | 72 | 1021.9 |
| 20260503004442 | 15 | 235 | 0.0 | 0.0 | 0.00 | 0.00 | 0.00 | 72 | 1022.0 |
| 20260503003935 | 15 | 235 | 0.0 | 0.0 | 0.00 | 0.00 | 0.00 | 72 | 1022.1 |
| 20260503003441 | 15 | 235 | 0.0 | 0.0 | 0.00 | 0.00 | 0.00 | 72 | 1022.1 |
| 20260503002948 | 15 | 235 | 0.0 | 0.0 | 0.00 | 0.00 | 0.00 | 72 | 1022.1 |